User: anonymous   Login
Location: Bethera
(33.2010°N, 79.7880°W)
Time: 20:23:04
(UTC-04:00)
Language:

Cosmos 1833 Rocket - Orbit

View from above orbital plane
View from above orbital plane
View from above satellite
View from above satellite

Ground track
Ground track

The orbit data is extracted from the following two-line orbital elements,

1 17590U 87027B   17080.93322257 +.00000039 +00000-0 +43424-4 0  9998
2 17590 071.0049 333.7110 0002877 066.3342 293.8083 14.16740500551531
Epoch (UTC): 21 March 2017 22:23:50
Eccentricity: 0.0002877
inclination: 71.0049°
perigee height: 834 km
apogee height: 838 km
right ascension of ascending node: 333.7110°
argument of perigee: 66.3342°
revolutions per day: 14.16740500
mean anomaly at epoch: 293.8083°
orbit number at epoch: 55153

The dashed part of the orbit path shows where the satellite is in the earth's shadow,  

DLR